Weather History for KICR - July, 2014

Change the Weather History Date:

Tuesday, July 15, 2014

  Actual Average Record
Temperature  
Mean Temperature 62 °F 76 °F  
Max Temperature 77 °F 89 °F 106 °F (2012)
Min Temperature 46 °F 63 °F 46 °F (2014)
Degree Days  
Heating Degree Days 3 0  
Month to date heating degree days 11 0  
Since 1 June heating degree days 48 54  
Since 1 July heating degree days 11 0  
Cooling Degree Days 0 11  
Month to date cooling degree days 119 146  
Year to date cooling degree days 317 321  
Since 1 June cooling degree days 236 291  
Growing Degree Days 10 (Base 50)    
Moisture  
Dew Point 45 °F    
Average Humidity 62    
Maximum Humidity 93    
Minimum Humidity 31    
Precipitation  
Precipitation 0.00 in 0.10 in 0.05 in (2013)
Month to date precipitation 0.18 1.60  
Year to date precipitation 9.13 13.32  
Sea Level Pressure  
Sea Level Pressure 30.18 in    
Wind  
Wind Speed 6 mph (NW)    
Max Wind Speed 12 mph    
Max Gust Speed 23 mph    
Visibility 10 miles    
Events      
T = Trace of Precipitation, MM = Missing Value Source: NWS Daily Summary

Daily Weather History Graph

Daily Weather History Graph

Search for Another Location

Airport or City:

Trip Planner

Search our weather history database for the weather conditions in past years. The results will help you decide how hot, cold, wet, or windy it might be!

Date:

Astronomy

Jul. 15, 2014 Rise Set
Actual Time 6:12 AM CDT 9:17 PM CDT
Civil Twilight 5:38 AM CDT 9:51 PM CDT
Nautical Twilight 4:54 AM CDT 10:35 PM CDT
Astronomical Twilight 4:01 AM CDT 11:28 PM CDT
Moon 11:17 PM CDT (7/15) 10:16 AM CDT (7/15)
Length of Visible Light 16h 13m
Length of Day
15h 05m
Waning Gibbous, 85% of the Moon is Illuminated
Jul 15
Waning Gibbous
Jul 18
Last Quarter
Jul 26
New
Aug 3
First Quarter
Aug 10
Full

Hourly Weather History & Observations

Time (CDT) Temp. Windchill Dew Point Humidity Pressure Visibility Wind Dir Wind Speed Gust Speed Precip Events Conditions
12:53 AM 54.0 °F - 46.0 °F 75% 30.26 in 10.0 mi WSW 4.6 mph - N/A   Clear
1:53 AM 52.0 °F - 45.0 °F 77% 30.27 in 10.0 mi WSW 5.8 mph - N/A   Mostly Cloudy
2:53 AM 51.1 °F - 46.0 °F 83% 30.26 in 10.0 mi West 4.6 mph - N/A   Clear
3:53 AM 50.0 °F - 45.0 °F 83% 30.25 in 10.0 mi WSW 5.8 mph - N/A   Clear
4:53 AM 48.0 °F - 45.0 °F 89% 30.25 in 10.0 mi WSW 5.8 mph - N/A   Clear
5:53 AM 46.0 °F 41.9 °F 44.1 °F 93% 30.25 in 10.0 mi WSW 8.1 mph - N/A   Clear
6:53 AM 48.9 °F - 45.0 °F 86% 30.25 in 10.0 mi WSW 8.1 mph - N/A   Clear
7:53 AM 53.1 °F - 46.9 °F 80% 30.25 in 10.0 mi West 4.6 mph - N/A   Clear
8:53 AM 59.0 °F - 48.0 °F 67% 30.25 in 10.0 mi NW 5.8 mph - N/A   Clear
9:53 AM 63.0 °F - 48.9 °F 60% 30.25 in 10.0 mi Calm Calm - N/A   Clear
10:53 AM 68.0 °F - 46.0 °F 45% 30.23 in 10.0 mi NNE 8.1 mph - N/A   Scattered Clouds
11:53 AM 66.9 °F - 44.1 °F 44% 30.22 in 10.0 mi North 6.9 mph - N/A   Mostly Cloudy
12:53 PM 71.1 °F - 44.1 °F 38% 30.20 in 10.0 mi NNE 5.8 mph - N/A   Partly Cloudy
1:53 PM 73.0 °F - 44.1 °F 35% 30.17 in 10.0 mi NNW 9.2 mph - N/A   Clear
2:53 PM 75.0 °F - 44.1 °F 33% 30.14 in 10.0 mi North 5.8 mph - N/A   Clear
3:53 PM 75.0 °F - 43.0 °F 32% 30.12 in 10.0 mi Calm Calm - N/A   Clear
4:53 PM 75.9 °F - 44.1 °F 32% 30.10 in 10.0 mi Variable 5.8 mph - N/A   Clear
5:53 PM 75.9 °F - 44.1 °F 32% 30.09 in 10.0 mi Variable 5.8 mph - N/A   Clear
6:53 PM 75.0 °F - 45.0 °F 34% 30.08 in 10.0 mi North - - N/A   Clear
7:53 PM 73.0 °F - 46.0 °F 38% 30.07 in 10.0 mi ENE 6.9 mph - N/A   Clear
8:53 PM 66.0 °F - 46.9 °F 50% 30.07 in 10.0 mi East 6.9 mph - N/A   Clear
9:53 PM 61.0 °F - 46.9 °F 60% 30.09 in 10.0 mi East 5.8 mph - N/A   Clear
10:53 PM 60.1 °F - 46.0 °F 60% 30.09 in 10.0 mi ESE 8.1 mph - N/A   Clear
11:53 PM 57.9 °F - 46.0 °F 65% 30.09 in 10.0 mi ESE 6.9 mph - N/A   Clear